This demonstration page uses our WeatherBlox Daily Observations layout. Learn more.

Hourly Observations for May 16, 2020

Temp ( °F °C ) Dew Point ( °F °C ) Humidity (%) Winds ( mph kmh ) Pressure ( in mb ) Visibility ( mi km ) Precip ( " mm )
12:15 am 00:15 Cloudy 73 23 59 15 61 61 WSW 5 7 29.95 1014 10 16.0934 0 0
12:35 am 00:35 Cloudy 73 23 59 15 61 61 WSW 6 9 29.95 1014 10 16.0934 0 0
12:55 am 00:55 Cloudy 73 23 59 15 61 61 WSW 3 6 29.95 1014 10 16.0934 0 0
1:15 am 01:15 Cloudy 73 23 59 15 61 61 WSW 5 7 29.95 1014 10 16.0934 0 0
1:35 am 01:35 Cloudy 72 22 59 15 65 65 WSW 3 6 29.95 1014 10 16.0934 0 0
1:55 am 01:55 Cloudy 72 22 59 15 65 65 SSW 3 6 29.94 1014 10 16.0934 0 0
2:15 am 02:15 Partly Cloudy 70 21 59 15 69 69 WSW 3 6 29.94 1014 10 16.0934 0 0
2:35 am 02:35 Mostly Cloudy 70 21 59 15 69 69 Calm 29.94 1014 10 16.0934 0 0
2:55 am 02:55 Mostly Cloudy 70 21 59 15 69 69 WSW 3 6 29.94 1014 10 16.0934 0 0
3:15 am 03:15 Mostly Cloudy 68 20 59 15 73 73 WSW 3 6 29.94 1014 10 16.0934 0 0
3:35 am 03:35 Mostly Cloudy 68 20 61 16 78 78 W 3 6 29.94 1014 10 16.0934 0 0
3:55 am 03:55 Cloudy 68 20 61 16 78 78 W 5 7 29.94 1014 10 16.0934 0 0
4:15 am 04:15 Cloudy 68 20 59 15 73 73 W 6 9 29.94 1014 10 16.0934 0 0
4:35 am 04:35 Cloudy 68 20 61 16 78 78 W 3 6 29.94 1014 10 16.0934 0 0
4:55 am 04:55 Partly Cloudy 66 19 59 15 78 78 NW 3 6 29.95 1014 10 16.0934 0 0
5:15 am 05:15 Partly Cloudy 66 19 59 15 78 78 WNW 8 13 29.96 1015 10 16.0934 0 0
5:35 am 05:35 Partly Cloudy 68 20 59 15 73 73 NW 7 11 29.97 1015 10 16.0934 0 0
5:55 am 05:55 Mostly Cloudy 70 21 59 15 69 69 W 5 7 29.99 1016 10 16.0934 0 0
6:15 am 06:15 Cloudy 70 21 61 16 73 73 NW 7 11 30 1016 10 16.0934 0 0
6:35 am 06:35 Cloudy 70 21 61 16 73 73 N 12 19 30.02 1017 10 16.0934 0 0
6:55 am 06:55 Mostly Cloudy 68 20 61 16 78 78 N 12 19 30.04 1017 10 16.0934 0 0
7:15 am 07:15 Partly Cloudy 68 20 61 16 78 78 N 12 19 30.04 1017 10 16.0934 0 0
7:35 am 07:35 Sunny 68 20 61 16 78 78 N 12 19 30.05 1018 10 16.0934 0 0
7:55 am 07:55 Sunny 68 20 61 16 78 78 N 14 22 30.05 1018 10 16.0934 0 0
8:15 am 08:15 Sunny 70 21 61 16 73 73 N 12 19 30.05 1018 10 16.0934 0 0
8:35 am 08:35 Sunny 70 21 59 15 69 69 N 10 17 30.06 1018 10 16.0934 0 0
8:55 am 08:55 Sunny 72 22 61 16 69 69 N 9 15 30.07 1018 10 16.0934 0 0
9:15 am 09:15 Partly Cloudy 72 22 59 15 65 65 N 12 19 30.08 1019 10 16.0934 0 0
9:35 am 09:35 Sunny 72 22 59 15 65 65 N 12 19 30.09 1019 10 16.0934 0 0
9:55 am 09:55 Sunny 72 22 61 16 69 69 N 9 15 30.09 1019 10 16.0934 0 0
10:15 am 10:15 Sunny 72 22 61 16 69 69 N 9 15 30.08 1019 10 16.0934 0 0
10:35 am 10:35 Partly Cloudy 73 23 61 16 65 65 N 6 9 30.09 1019 10 16.0934 0 0
10:55 am 10:55 Partly Cloudy 73 23 59 15 61 61 N 8 13 30.09 1019 10 16.0934 0 0
11:15 am 11:15 Mostly Cloudy 72 22 59 15 65 65 NE 3 6 30.09 1019 10 16.0934 0 0
11:35 am 11:35 Mostly Cloudy 73 23 59 15 61 61 N 5 7 30.09 1019 10 16.0934 0 0
11:55 am 11:55 Partly Cloudy 73 23 59 15 61 61 ENE 6 9 30.09 1019 10 16.0934 0 0
12:15 pm 12:15 Partly Cloudy 75 24 59 15 57 57 NNW 6 9 30.09 1019 10 16.0934 0 0
12:35 pm 12:35 Partly Cloudy 77 25 57 14 51 51 NNE 5 7 30.08 1019 10 16.0934 0 0
12:55 pm 12:55 Partly Cloudy 77 25 57 14 51 51 NNW 3 6 30.08 1019 10 16.0934 0 0
1:15 pm 13:15 Partly Cloudy 77 25 55 13 47 47 NE 5 7 30.08 1019 10 16.0934 0 0
1:35 pm 13:35 Partly Cloudy 77 25 55 13 47 47 NNE 6 9 30.08 1019 10 16.0934 0 0
1:55 pm 13:55 Partly Cloudy 77 25 55 13 47 47 ENE 7 11 30.08 1019 10 16.0934 0 0
2:15 pm 14:15 Partly Cloudy 77 25 54 12 44 44 N 6 9 30.08 1019 10 16.0934 0 0
2:35 pm 14:35 Sunny 77 25 54 12 44 44 NE 3 6 30.07 1018 10 16.0934 0 0
2:55 pm 14:55 Sunny 79 26 55 13 45 45 Calm 30.07 1018 10 16.0934 0 0
3:15 pm 15:15 Sunny 77 25 52 11 42 42 NE 6 9 30.07 1018 10 16.0934 0 0
3:35 pm 15:35 Sunny 79 26 52 11 39 39 Calm 30.07 1018 10 16.0934 0 0
3:55 pm 15:55 Sunny 81 27 54 12 39 39 W 6 9 30.07 1018 10 16.0934 0 0
4:15 pm 16:15 Sunny 79 26 50 10 37 37 E 6 9 30.06 1018 10 16.0934 0 0
4:35 pm 16:35 Sunny 79 26 50 10 37 37 NE 8 13 30.07 1018 10 16.0934 0 0
4:55 pm 16:55 Sunny 79 26 50 10 37 37 NNE 7 11 30.07 1018 10 16.0934 0 0
5:15 pm 17:15 Sunny 79 26 52 11 39 39 Calm 30.07 1018 10 16.0934 0 0
5:35 pm 17:35 Partly Cloudy 79 26 52 11 39 39 NNE 6 9 30.06 1018 10 16.0934 0 0
5:55 pm 17:55 Partly Cloudy 79 26 52 11 39 39 NNE 9 15 30.07 1018 10 16.0934 0 0
6:15 pm 18:15 Mostly Cloudy 77 25 52 11 42 42 NE 9 15 30.07 1018 10 16.0934 0 0
6:35 pm 18:35 Cloudy 75 24 50 10 41 41 NE 7 11 30.09 1019 10 16.0934 0 0
6:55 pm 18:55 Mostly Cloudy 75 24 50 10 41 41 NE 7 11 30.09 1019 10 16.0934 0 0
7:15 pm 19:15 Mostly Cloudy 75 24 52 11 44 44 NNE 7 11 30.09 1019 10 16.0934 0 0
7:35 pm 19:35 Cloudy 73 23 52 11 47 47 NE 6 9 30.1 1019 10 16.0934 0 0
7:55 pm 19:55 Mostly Cloudy 73 23 50 10 44 44 NE 7 11 30.1 1019 10 16.0934 0 0
8:15 pm 20:15 Partly Cloudy 72 22 50 10 47 47 NE 8 13 30.11 1020 10 16.0934 0 0
8:35 pm 20:35 Clear 72 22 50 10 47 47 NE 7 11 30.11 1020 10 16.0934 0 0
8:55 pm 20:55 Partly Cloudy 72 22 50 10 47 47 NE 6 9 30.12 1020 10 16.0934 0 0
9:15 pm 21:15 Partly Cloudy 70 21 50 10 50 50 NE 7 11 30.13 1020 10 16.0934 0 0
9:35 pm 21:35 Clear 70 21 50 10 50 50 NE 5 7 30.14 1021 10 16.0934 0 0
9:55 pm 21:55 Clear 68 20 50 10 53 53 NE 3 6 30.14 1021 10 16.0934 0 0
10:15 pm 22:15 Clear 68 20 52 11 56 56 NE 3 6 30.14 1021 10 16.0934 0 0
10:35 pm 22:35 Clear 68 20 52 11 56 56 Calm 30.15 1021 10 16.0934 0 0
10:55 pm 22:55 Clear 64 18 52 11 64 64 Calm 30.15 1021 10 16.0934 0 0
11:15 pm 23:15 Clear 64 18 52 11 64 64 Calm 30.15 1021 10 16.0934 0 0
11:35 pm 23:35 Clear 63 17 52 11 68 68 N 3 6 30.15 1021 10 16.0934 0 0
11:55 pm 23:55 Clear 63 17 52 11 68 68 Calm 30.15 1021 10 16.0934 0 0

Powered by AerisWeather